RH
29 28 28 37 42 48 54 56 52 49 55 57 84 100 93 86 97 85 71 65 71 79 89 86 90 74 66 58 56 87 64 50 28 28 49 33 16 13 13 18 19 31 47
38 37 36 36 42 43 53 51 53 78 100 95 98 99 100 94 86 78 67 72 86 74 80 91 80 84 73 60 74 95 59 33 36 20 14 18 18 9 10 12 16 19 27
36 29 30 33 34 43 43 48 91 90 94 100 95 84 65 55 66 68 76 73 72 77 87 92 81 96 67 67 71 59 37 42 18 16 10 7 9 9 9 9 10 14 16
29 30 28 27 34 38 92 94 100 100 100 100 100 92 89 85 78 75 74 73 76 82 82 76 77 80 73 62 69 45 32 20 13 8 6 5 5 6 9 7 8 9 12
28 27 27 29 36 84 93 100 94 100 100 100 100 100 100 88 81 77 80 79 68 74 82 100 82 70 96 81 56 46 29 16 10 5 4 3 4 4 6 7 7 7 8
35 34 28 25 31 93 100 100 100 99 100 95 100 100 100 100 82 76 62 54 48 30 67 93 90 90 88 68 58 50 27 14 10 7 4 3 3 4 4 5 6 5 6
16 19 12 12 27 78 98 100 100 100 100 93 100 100 100 92 89 77 70 68 54 41 69 77 88 61 64 70 56 42 32 19 13 8 5 4 4 3 4 4 4 4 5
11 11 12 11 30 72 100 100 100 100 92 100 100 100 100 79 59 60 72 81 100 93 82 94 100 99 82 82 55 33 27 21 15 7 6 5 4 4 3 4 4 4 5
11 10 9 12 33 100 100 100 100 100 100 99 100 100 74 59 64 80 90 78 86 100 98 100 100 87 91 62 47 31 36 28 18 8 6 6 5 4 3 3 3 4 4
10 11 12 11 17 87 91 98 100 100 100 100 100 90 89 100 81 89 100 100 94 99 77 100 98 92 86 60 37 39 32 30 20 8 8 7 6 5 4 4 4 4 4
12 13 13 15 16 80 100 100 100 100 100 97 89 78 99 100 100 100 100 100 100 94 75 98 100 100 66 46 54 45 34 33 14 9 9 9 8 6 5 5 5 5 4
12 23 42 20 57 83 100 100 100 100 98 88 67 75 100 100 100 100 100 100 100 85 62 98 92 60 52 68 65 34 31 27 10 11 10 12 10 8 7 6 5 5 5
16 14 52 82 62 88 91 94 88 100 77 78 73 65 66 55 78 77 80 89 82 67 90 100 90 87 82 66 40 30 29 18 11 12 14 15 16 18 18 14 13 12 7
25 51 75 85 88 92 88 64 92 99 85 100 100 100 91 82 71 90 97 100 100 99 100 100 92 80 63 41 33 32 22 12 12 13 18 21 33 40 38 39 42 19 12
37 36 81 90 86 98 100 89 96 100 72 70 74 71 79 76 91 94 94 70 96 100 91 86 86 63 46 37 35 24 14 11 13 13 21 36 45 48 47 56 50 37 18
69 45 56 50 54 76 54 43 74 64 58 66 62 78 92 90 91 94 96 93 96 90 80 64 53 43 37 35 28 18 12 12 12 15 27 53 48 62 58 59 73 53 22
100 78 58 67 78 99 99 99 99 100 100 95 99 94 100 100 92 74 63 58 64 58 50 46 44 36 34 27 17 13 14 13 13 19 42 65 56 78 80 70 76 52 30
82 74 82 88 88 100 100 100 100 100 100 100 97 90 86 92 72 60 56 50 43 39 34 33 32 24 22 16 12 15 16 14 14 21 49 72 69 84 75 76 71 44 22
93 83 78 89 85 99 100 96 96 95 98 96 90 87 71 58 52 47 43 34 31 29 23 21 21 18 14 13 16 18 19 15 16 23 46 73 81 87 87 78 80 46 31
98 90 98 100 100 100 100 96 100 100 74 73 59 53 49 46 45 30 19 17 16 14 14 14 14 13 17 21 21 23 22 20 19 25 38 79 88 85 94 72 90 48 56
100 100 87 96 100 100 100 100 90 65 56 48 44 46 44 29 18 18 14 13 14 14 13 14 18 22 23 26 27 26 26 26 21 26 27 75 100 80 100 79 98 68 52
99 100 98 92 99 97 85 64 60 50 46 42 42 32 19 19 17 21 21 19 19 20 22 27 30 31 31 26 23 21 25 27 26 24 27 60 100 76 92 92 100 100 98
97 94 88 90 94 85 65 58 48 40 39 39 22 25 25 20 21 23 23 24 25 26 28 28 32 34 29 23 20 18 20 28 30 26 28 42 85 93 74 88 89 100 100
90 85 81 73 64 56 45 37 38 35 24 25 29 26 24 27 26 24 24 25 24 26 28 30 30 30 28 26 23 21 18 19 25 29 27 30 67 99 81 72 80 87 100
50 46 43 39 35 34 33 29 25 28 39 38 35 32 28 28 28 30 30 31 27 27 29 28 31 30 28 28 28 27 25 24 23 21 22 25 32 85 98 73 69 78 97
34 30 25 22 22 26 36 41 48 50 41 42 37 30 26 26 27 28 29 31 32 32 33 30 30 30 28 28 30 32 31 28 27 26 22 18 25 40 88 92 76 71 76
Wind_Speed
51 53 53 52 51 51 54 55 56 58 61 56 56 57 60 57 62 62 59 60 57 62 64 67 59 66 74 79 82 85 78 69 52 61 62 61 60 63 70 77 76 74 73
54 54 53 54 56 55 58 60 58 69 61 56 57 58 59 62 62 65 64 61 62 69 69 68 66 63 85 88 88 90 87 82 60 53 65 71 63 59 64 69 78 78 77
55 55 55 55 55 58 61 67 63 53 50 57 60 62 67 66 64 67 65 65 71 68 68 65 63 76 80 90 91 92 95 90 59 49 60 68 68 59 56 64 70 81 80
57 57 58 59 59 65 64 76 50 49 56 61 65 70 71 66 70 69 69 69 71 68 70 71 66 76 89 95 95 102 105 77 63 53 53 64 64 61 54 53 65 71 81
62 61 62 61 62 62 53 65 59 59 67 64 68 71 74 78 71 68 67 70 72 75 70 64 63 73 102 98 106 107 111 77 63 51 50 56 62 60 60 54 58 65 72
64 66 65 62 55 42 48 69 77 71 73 69 74 83 78 74 71 72 75 74 69 80 73 73 72 89 103 107 109 110 117 76 66 56 45 45 55 57 61 58 54 58 65
63 66 62 58 47 48 51 59 70 76 76 74 83 87 80 73 74 73 78 77 75 75 66 72 92 104 105 107 114 116 105 84 75 60 46 40 47 56 60 61 57 50 52
61 62 61 57 50 50 48 54 62 72 83 87 84 87 85 78 77 79 73 64 65 67 69 84 98 100 105 105 114 119 97 88 80 58 44 42 42 54 58 59 58 56 56
66 67 62 55 51 46 48 58 67 77 82 81 84 90 80 79 75 66 58 62 62 68 81 93 99 108 106 113 115 112 98 96 82 62 46 39 42 48 53 54 59 60 61
67 66 65 66 53 48 58 63 68 75 81 81 82 73 57 58 58 60 57 61 74 91 113 109 107 106 108 114 116 105 104 95 84 60 49 41 37 38 47 50 56 58 63
69 67 64 59 53 48 51 53 61 71 74 75 71 58 37 37 55 63 72 79 94 108 115 113 110 111 113 110 107 102 95 96 78 58 48 40 33 32 37 45 52 55 56
70 63 61 54 51 50 54 58 58 59 62 68 71 57 42 54 70 79 85 93 100 113 115 108 112 114 111 112 111 99 95 87 69 55 43 38 32 29 32 37 43 46 51
69 64 56 51 51 52 58 57 58 63 69 69 70 67 65 70 72 82 93 101 104 112 111 111 111 113 112 114 105 97 89 75 60 48 38 35 27 25 26 27 28 34 44
68 51 53 44 50 50 63 63 63 66 65 71 75 79 89 92 91 89 98 104 107 107 108 106 109 111 112 101 99 91 81 68 53 42 33 31 25 24 23 21 23 30 35
67 58 46 54 56 58 65 67 70 77 83 86 88 88 90 87 93 97 100 104 101 101 105 106 109 104 99 99 95 84 73 59 45 37 30 29 26 24 20 18 20 19 25
68 56 55 70 68 76 77 80 78 77 76 83 87 90 96 97 98 94 96 94 97 101 101 96 95 100 97 93 83 76 62 50 39 32 28 29 25 23 23 18 15 17 19
73 79 75 73 75 80 83 86 88 91 94 95 96 100 96 92 96 81 83 84 87 92 97 100 100 96 90 82 75 63 53 44 34 29 30 30 26 24 23 22 19 19 21
79 81 83 78 76 79 82 82 86 90 94 99 99 94 82 76 88 91 94 96 100 100 94 91 90 83 77 67 59 54 42 39 32 29 33 32 29 26 24 21 18 17 22
88 89 81 80 81 80 82 89 90 94 97 93 80 79 87 92 94 100 102 97 92 89 85 82 76 66 58 55 49 43 38 35 31 30 34 35 32 27 24 22 21 21 25
96 85 80 81 83 88 90 89 94 98 84 80 87 89 93 97 101 95 86 82 78 72 66 62 57 52 49 44 41 37 35 34 31 32 36 39 37 31 26 21 20 24 33
86 85 89 88 87 92 95 102 95 83 90 91 94 97 100 92 82 77 71 66 62 58 55 52 52 47 42 40 37 35 33 33 33 33 36 44 42 36 31 26 25 29 36
90 94 93 91 95 98 96 87 90 93 95 97 98 95 82 75 68 64 63 61 57 53 50 47 45 43 40 37 34 32 31 30 33 33 35 47 48 43 36 31 34 33 42
87 91 94 94 93 92 93 97 100 100 99 96 84 77 71 65 60 57 56 52 49 46 45 42 39 37 36 34 31 29 28 28 30 33 34 44 52 50 44 40 38 43 51
83 88 91 93 97 99 100 98 98 95 88 80 73 67 62 58 55 50 47 44 41 38 35 31 31 30 30 28 26 25 25 26 29 31 34 35 53 55 51 45 42 42 59
92 93 95 97 96 93 91 86 81 75 70 66 63 59 55 50 44 40 37 35 33 32 32 29 29 28 26 24 21 20 21 21 23 29 31 35 40 59 57 52 48 44 61
90 85 79 74 72 69 67 65 63 62 61 58 55 52 48 44 42 39 37 34 32 30 32 30 29 28 25 23 21 21 21 22 22 23 24 30 34 49 63 60 54 52 58
Wind_Direction
304 304 306 310 312 313 310 309 310 311 310 310 311 309 312 310 313 314 314 317 320 318 321 319 317 334 339 337 338 337 338 337 310 283 275 270 259 243 239 234 232 229 227
302 303 304 309 312 312 309 311 310 311 307 306 311 311 310 312 312 311 313 316 316 314 314 313 319 327 333 335 337 333 333 334 329 301 279 271 267 259 244 238 234 233 228
297 301 306 306 308 307 310 310 309 310 302 301 306 315 314 313 310 309 311 314 312 311 310 308 315 326 324 332 332 330 332 330 316 304 286 271 269 268 259 243 236 232 232
299 301 302 306 311 313 316 315 300 309 304 305 311 312 316 313 309 310 313 312 310 309 309 309 314 313 324 326 328 330 331 327 322 300 279 271 268 267 263 253 240 233 230
298 302 305 308 314 320 306 308 291 301 304 306 310 312 309 309 307 310 310 308 307 311 308 304 303 317 325 324 328 329 330 327 321 309 285 274 267 261 258 255 246 237 232
297 298 300 305 310 318 273 286 282 285 297 294 298 305 306 307 306 307 306 305 305 313 303 303 307 313 321 325 324 326 328 324 324 314 293 278 269 260 256 251 246 241 234
293 294 300 302 309 300 292 267 275 273 283 287 297 298 302 304 305 306 307 302 305 308 306 311 316 314 319 323 321 325 324 324 325 319 306 287 270 259 253 249 245 242 237
293 295 295 300 300 295 282 283 271 270 279 286 292 294 297 300 303 306 301 301 306 301 304 307 313 318 320 320 318 321 321 325 322 316 307 290 269 258 251 250 247 242 237
292 292 297 298 300 289 276 277 274 275 283 287 288 292 297 302 304 298 292 294 297 302 311 310 309 315 316 315 317 318 320 322 322 316 311 291 270 258 253 249 248 243 236
290 293 295 296 290 279 282 278 276 277 277 281 285 293 305 306 297 285 287 292 294 304 312 309 309 313 315 314 314 315 318 320 321 317 313 299 278 257 249 246 246 242 241
289 288 291 292 286 281 286 272 275 275 276 283 285 293 294 290 279 283 292 295 306 311 311 307 310 311 311 312 315 314 317 321 317 317 310 299 283 262 244 240 242 241 237
291 291 290 288 283 273 276 270 273 277 280 283 288 290 271 280 284 284 285 294 297 304 304 302 303 305 307 311 311 313 318 317 315 314 305 296 283 264 250 242 238 241 238
291 292 289 289 288 270 269 275 274 282 282 285 289 286 278 276 279 286 285 289 292 295 303 303 303 304 307 307 307 312 314 315 314 309 300 290 274 261 253 246 240 235 236
292 290 288 284 293 279 282 278 276 280 281 288 296 295 292 294 296 298 302 302 300 298 298 298 301 302 303 305 309 311 314 313 310 302 291 276 259 256 252 248 241 234 233
294 296 278 290 287 285 290 286 284 285 287 286 293 293 293 299 300 298 293 295 295 295 294 297 299 300 301 305 308 311 312 308 303 295 278 256 252 247 246 243 246 241 230
294 292 275 287 282 280 285 281 280 288 293 298 298 300 300 299 300 296 296 292 291 293 295 296 296 299 303 304 307 309 308 304 294 285 260 245 245 240 242 242 252 253 230
288 293 293 290 291 293 295 295 296 295 295 299 301 302 300 294 294 295 295 295 293 293 295 300 299 301 302 303 305 304 303 295 284 270 239 239 238 234 241 251 243 253 230
283 289 292 289 291 296 295 293 292 293 296 295 296 297 296 292 294 295 295 295 295 297 298 299 300 301 302 301 300 300 295 285 275 255 231 231 233 233 241 244 241 237 209
289 289 289 290 295 295 294 294 293 294 296 296 292 290 291 292 295 297 298 298 298 297 298 299 298 298 299 298 296 293 286 276 267 249 226 227 227 228 239 247 236 226 200
294 293 292 294 292 291 293 295 295 293 292 290 291 292 293 297 298 299 297 296 296 296 299 299 297 297 296 294 291 285 277 268 259 245 224 218 224 220 227 225 219 214 192
290 286 289 291 294 292 292 291 292 288 289 292 294 297 298 296 297 298 298 297 297 295 295 296 296 295 294 292 288 281 274 263 255 245 228 216 219 218 217 223 213 205 192
284 286 287 287 287 288 290 286 288 290 293 296 298 298 300 301 300 299 298 296 296 296 294 293 292 292 292 291 287 279 272 263 254 246 235 215 217 218 211 217 194 193 185
284 284 285 288 288 286 286 287 291 294 296 296 298 300 300 300 301 300 297 295 294 293 291 290 290 290 291 290 285 276 268 263 255 249 238 223 215 219 212 211 203 191 192
283 284 284 283 285 286 288 291 291 293 296 297 300 301 302 304 303 299 295 293 293 291 290 290 293 293 288 285 282 277 271 262 255 248 241 232 218 216 218 212 209 200 191
283 284 284 285 286 287 287 289 290 293 296 298 300 301 301 300 299 297 295 295 297 300 300 302 297 290 281 273 269 268 264 260 259 248 247 234 227 215 218 215 211 205 197
285 286 286 286 285 286 286 289 292 293 293 296 296 296 299 301 299 297 297 298 299 297 297 298 293 286 277 266 260 261 264 262 261 258 256 240 231 221 216 219 215 210 203